TimeCDT,TemperatureF,Dew PointF,Humidity,Sea Level PressureIn,VisibilityMPH,Wind Direction,Wind SpeedMPH,Gust SpeedMPH,PrecipitationIn,Events,Conditions,WindDirDegrees,DateUTC
12:53 AM,42.1,37.9,85,29.65,10.0,South,8.1,-,N/A,,Overcast,170,2012-03-12 05:53:00
1:53 AM,41.0,36.0,82,29.63,10.0,SSE,9.2,-,N/A,,Clear,160,2012-03-12 06:53:00
2:53 AM,39.0,35.1,86,29.63,10.0,SSW,6.9,-,N/A,,Clear,200,2012-03-12 07:53:00
3:53 AM,35.1,33.1,92,29.63,10.0,SW,4.6,-,N/A,,Clear,230,2012-03-12 08:53:00
5:53 AM,34.0,30.0,85,29.68,10.0,WSW,8.1,-,N/A,,Clear,250,2012-03-12 10:53:00
6:53 AM,34.0,28.9,82,29.70,10.0,WSW,11.5,-,N/A,,Clear,240,2012-03-12 11:53:00
7:53 AM,39.9,28.0,63,29.71,10.0,West,15.0,-,N/A,,Clear,270,2012-03-12 12:53:00
8:53 AM,37.9,28.9,70,29.76,10.0,WSW,10.4,-,N/A,,Clear,240,2012-03-12 13:53:00
9:53 AM,48.2,30.2,50,29.76,10.0,WSW,13.8,-,N/A,,Clear,250,2012-03-12 14:53:00
10:53 AM,57.9,32.0,37,29.79,10.0,West,18.4,25.3,N/A,,Clear,280,2012-03-12 15:53:00
11:53 AM,68.0,30.0,24,29.81,10.0,West,20.7,27.6,N/A,,Clear,280,2012-03-12 16:53:00
12:53 PM,72.0,27.0,19,29.81,10.0,NW,21.9,28.8,N/A,,Clear,320,2012-03-12 17:53:00
1:53 PM,75.9,24.1,15,29.81,10.0,NW,20.7,28.8,N/A,,Clear,320,2012-03-12 18:53:00
2:53 PM,77.0,21.9,13,29.81,10.0,NW,17.3,24.2,N/A,,Clear,310,2012-03-12 19:53:00
3:53 PM,77.0,21.0,12,29.81,10.0,WNW,21.9,27.6,N/A,,Clear,300,2012-03-12 20:53:00
4:53 PM,75.9,21.0,13,29.83,10.0,WNW,12.7,-,N/A,,Clear,300,2012-03-12 21:53:00
5:53 PM,75.0,19.9,13,29.84,10.0,NW,20.7,26.5,N/A,,Clear,310,2012-03-12 22:53:00
6:53 PM,72.0,19.9,14,29.87,10.0,WNW,9.2,-,N/A,,Clear,290,2012-03-12 23:53:00
7:53 PM,68.0,19.9,16,29.87,10.0,WNW,3.5,-,N/A,,Clear,290,2012-03-13 00:53:00
8:53 PM,57.9,21.9,25,29.90,10.0,Calm,Calm,-,N/A,,Clear,0,2012-03-13 01:53:00
9:53 PM,52.0,21.9,31,29.91,10.0,North,3.5,-,N/A,,Clear,360,2012-03-13 02:53:00
10:53 PM,48.9,23.0,36,29.91,10.0,WSW,4.6,-,N/A,,Clear,250,2012-03-13 03:53:00
11:53 PM,48.0,21.0,34,29.91,10.0,South,4.6,-,N/A,,Clear,190,2012-03-13 04:53:00